Location: Observatoire
(46.1952°N, 5.3391°E)
Time: 08:27:01
(UTC+01:00)

Altair - Pass Details

Date: 20 February 2026
Orbit: 1502 x 1682 km, 47.2° (Epoch: 9 March)

Event Time Altitude Azimuth Distance (km) Brightness Sun altitude
Rises 05:09:32 0° 237° (WSW) 4,626 - -25.6°
Reaches altitude 10° 05:12:32 10° 235° (SW) 3,650 - -25.1°
Exits shadow 05:17:01 34° 228° (SW) 2,309 8.0 -24.3°
Maximum altitude 05:21:38 71° 154° (SSE) 1,599 7.5 -23.5°
Drops below altitude 10° 05:30:59 10° 73° (ENE) 3,751 10.6 -21.9°
Sets 05:34:07 0° 72° (ENE) 4,760 11.5 -21.4°
